sat.trackr.live / text

‹ back to catalog

STARLINK-35617

NORAD 66422 · 2025-259A

PAYLOAD ACTIVE UNKNOWN

§ Identity

Operator
Country
US
Launch date
2025-11-11
Launch site
AFETR
Launch vehicle
Mass (kg)
RCS (m²)

Purposes: comms

External: N2YO · Heavens-Above · Gunter

§ Orbital elements

Epoch: 2026-05-24T13:38:44.659680Z

Period
94.27 min
Inclination
43.0019°
Eccentricity
0.0001903
Mean motion
15.27599334 rev/d
Perigee alt
481.7 km
Apogee alt
484.3 km
Semi-major
6,861.1 km
B*
8.8668e-4
RAAN
206.0358°
Arg perigee
268.4873°
Mean anomaly
91.5761°
Rev number
3,109

§ Raw data

STARLINK-356171 66422U 25259A   26144.56857245  .00024232  00000+0  88668-3 0  99932 66422  43.0019 206.0358 0001903 268.4873  91.5761 15.27599334 31094

JSON: /api/v1/satellites/66422 · /tle

For live sub-satellite position, see the globe view (requires WebGL).

§ Visibility from observer

Set your observer location to see the next 7 days of passes ≥ 10°. The values pass through the URL so the page stays shareable.

No JS? Fill the form by hand. The geolocation button needs JavaScript.